Year,Month,Day,Hour,Minute,Value (Times are PST for temperature in C)
2012,11,07,00,00,6.90
2012,11,07,00,01,7.00
2012,11,07,00,02,7.10
2012,11,07,00,03,7.20
2012,11,07,00,04,7.20
2012,11,07,00,05,7.20
2012,11,07,00,06,7.20
2012,11,07,00,07,7.20
2012,11,07,00,08,7.20
2012,11,07,00,09,7.20
2012,11,07,00,10,7.10
2012,11,07,00,11,7.10
2012,11,07,00,12,7.10
2012,11,07,00,13,7.10
2012,11,07,00,14,7.10
2012,11,07,00,15,7.10
2012,11,07,00,16,7.10
2012,11,07,00,17,7.10
2012,11,07,00,18,7.00
2012,11,07,00,19,6.90
2012,11,07,00,20,6.90
2012,11,07,00,21,6.80
2012,11,07,00,22,6.80
2012,11,07,00,23,6.80
2012,11,07,00,24,6.80
2012,11,07,00,25,6.70
2012,11,07,00,26,6.70
2012,11,07,00,27,6.60
2012,11,07,00,28,6.60
2012,11,07,00,29,6.60
2012,11,07,00,30,6.50
2012,11,07,00,31,6.40
2012,11,07,00,32,6.40
2012,11,07,00,33,6.30
2012,11,07,00,34,6.20
2012,11,07,00,35,6.10
2012,11,07,00,36,6.00
2012,11,07,00,37,5.90
2012,11,07,00,38,5.80
2012,11,07,00,39,5.70
2012,11,07,00,40,5.70
2012,11,07,00,41,5.60
2012,11,07,00,42,5.50
2012,11,07,00,43,5.50
2012,11,07,00,44,5.40
2012,11,07,00,45,5.40
2012,11,07,00,46,5.40
2012,11,07,00,47,5.40
2012,11,07,00,48,5.30
2012,11,07,00,49,5.20
2012,11,07,00,50,5.20
2012,11,07,00,51,5.10
2012,11,07,00,52,5.10
2012,11,07,00,53,5.10
2012,11,07,00,54,5.10
2012,11,07,00,55,5.10
2012,11,07,00,56,5.10
2012,11,07,00,57,5.10
2012,11,07,00,58,5.20
2012,11,07,00,59,5.30
2012,11,07,01,00,5.30
2012,11,07,01,01,5.50
2012,11,07,01,02,5.60
2012,11,07,01,03,5.70
2012,11,07,01,04,5.90
2012,11,07,01,05,6.10
2012,11,07,01,06,6.30
2012,11,07,01,07,6.50
2012,11,07,01,08,6.70
2012,11,07,01,09,6.90
2012,11,07,01,10,7.20
2012,11,07,01,11,7.30
2012,11,07,01,12,7.50
2012,11,07,01,13,7.60
2012,11,07,01,14,7.70
2012,11,07,01,15,7.70
2012,11,07,01,16,7.70
2012,11,07,01,17,7.70
2012,11,07,01,18,7.70
2012,11,07,01,19,7.70
2012,11,07,01,20,7.60
2012,11,07,01,21,7.60
2012,11,07,01,22,7.50
2012,11,07,01,23,7.40
2012,11,07,01,24,7.30
2012,11,07,01,25,7.30
2012,11,07,01,26,7.20
2012,11,07,01,27,7.10
2012,11,07,01,28,7.00
2012,11,07,01,29,6.90
2012,11,07,01,30,6.70
2012,11,07,01,31,6.60
2012,11,07,01,32,6.50
2012,11,07,01,33,6.40
2012,11,07,01,34,6.20
2012,11,07,01,35,6.10
2012,11,07,01,36,6.00
2012,11,07,01,37,5.90
2012,11,07,01,38,6.00
2012,11,07,01,39,6.00
2012,11,07,01,40,6.00
2012,11,07,01,41,5.90
2012,11,07,01,42,5.90
2012,11,07,01,43,5.90
2012,11,07,01,44,5.80
2012,11,07,01,45,5.80
2012,11,07,01,46,5.80
2012,11,07,01,47,5.70
2012,11,07,01,48,5.70
2012,11,07,01,49,5.60
2012,11,07,01,50,5.60
2012,11,07,01,51,5.50
2012,11,07,01,52,5.40
2012,11,07,01,53,5.40
2012,11,07,01,54,5.30
2012,11,07,01,55,5.30
2012,11,07,01,56,5.20
2012,11,07,01,57,5.20
2012,11,07,01,58,5.10
2012,11,07,01,59,5.10
2012,11,07,02,00,5.10
2012,11,07,02,01,5.10
2012,11,07,02,02,5.10
2012,11,07,02,03,5.00
2012,11,07,02,04,5.00
2012,11,07,02,05,4.90
2012,11,07,02,06,4.90
2012,11,07,02,07,4.90
2012,11,07,02,08,4.90
2012,11,07,02,09,4.90
2012,11,07,02,10,4.80
2012,11,07,02,11,4.80
2012,11,07,02,12,4.80
2012,11,07,02,13,4.70
2012,11,07,02,14,4.70
2012,11,07,02,15,4.60
2012,11,07,02,16,4.60
2012,11,07,02,17,4.50
2012,11,07,02,18,4.50
2012,11,07,02,19,4.40
2012,11,07,02,20,4.40
2012,11,07,02,21,4.30
2012,11,07,02,22,4.30
2012,11,07,02,23,4.20
2012,11,07,02,24,4.20
2012,11,07,02,25,4.20
2012,11,07,02,26,4.20
2012,11,07,02,27,4.20
2012,11,07,02,28,4.20
2012,11,07,02,29,4.20
2012,11,07,02,30,4.20
2012,11,07,02,31,4.20
2012,11,07,02,32,4.20
2012,11,07,02,33,4.20
2012,11,07,02,34,4.20
2012,11,07,02,35,4.20
2012,11,07,02,36,4.20
2012,11,07,02,37,4.10
2012,11,07,02,38,4.10
2012,11,07,02,39,4.10
2012,11,07,02,40,4.00
2012,11,07,02,41,4.00
2012,11,07,02,42,3.90
2012,11,07,02,43,3.90
2012,11,07,02,44,3.80
2012,11,07,02,45,3.80
2012,11,07,02,46,3.70
2012,11,07,02,47,3.70
2012,11,07,02,48,3.70
2012,11,07,02,49,3.60
2012,11,07,02,50,3.60
2012,11,07,02,51,3.60
2012,11,07,02,52,3.60
2012,11,07,02,53,3.60
2012,11,07,02,54,3.60
2012,11,07,02,55,3.60
2012,11,07,02,56,3.60
2012,11,07,02,57,3.60
2012,11,07,02,58,3.60
2012,11,07,02,59,3.60
2012,11,07,03,00,3.60
2012,11,07,03,01,3.60
2012,11,07,03,02,3.60
2012,11,07,03,03,3.60
2012,11,07,03,04,3.50
2012,11,07,03,05,3.50
2012,11,07,03,06,3.40
2012,11,07,03,07,3.40
2012,11,07,03,08,3.30
2012,11,07,03,09,3.30
2012,11,07,03,10,3.30
2012,11,07,03,11,3.20
2012,11,07,03,12,3.20
2012,11,07,03,13,3.20
2012,11,07,03,14,3.20
2012,11,07,03,15,3.10
2012,11,07,03,16,3.10
2012,11,07,03,17,3.10
2012,11,07,03,18,3.10
2012,11,07,03,19,3.10
2012,11,07,03,20,3.10
2012,11,07,03,21,3.10
2012,11,07,03,22,3.00
2012,11,07,03,23,3.00
2012,11,07,03,24,3.10
2012,11,07,03,25,3.10
2012,11,07,03,26,3.10
2012,11,07,03,27,3.10
2012,11,07,03,28,3.20
2012,11,07,03,29,3.20
2012,11,07,03,30,3.30
2012,11,07,03,31,3.30
2012,11,07,03,32,3.40
2012,11,07,03,33,3.50
2012,11,07,03,34,3.50
2012,11,07,03,35,3.50
2012,11,07,03,36,3.50
2012,11,07,03,37,3.50
2012,11,07,03,38,3.50
2012,11,07,03,39,3.50
2012,11,07,03,40,3.50
2012,11,07,03,41,3.50
2012,11,07,03,42,3.50
2012,11,07,03,43,3.50
2012,11,07,03,44,3.50
2012,11,07,03,45,3.40
2012,11,07,03,46,3.40
2012,11,07,03,47,3.40
2012,11,07,03,48,3.40
2012,11,07,03,49,3.30
2012,11,07,03,50,3.30
2012,11,07,03,51,3.20
2012,11,07,03,52,3.20
2012,11,07,03,53,3.10
2012,11,07,03,54,3.10
2012,11,07,03,55,3.10
2012,11,07,03,56,3.10
2012,11,07,03,57,3.00
2012,11,07,03,58,2.90
2012,11,07,03,59,2.90
2012,11,07,04,00,2.90
2012,11,07,04,01,2.90
2012,11,07,04,02,2.80
2012,11,07,04,03,2.80
2012,11,07,04,04,2.80
2012,11,07,04,05,2.80
2012,11,07,04,06,2.80
2012,11,07,04,07,2.80
2012,11,07,04,08,2.80
2012,11,07,04,09,2.80
2012,11,07,04,10,2.80
2012,11,07,04,11,2.80
2012,11,07,04,12,2.80
2012,11,07,04,13,2.80
2012,11,07,04,14,2.90
2012,11,07,04,15,2.80
2012,11,07,04,16,2.90
2012,11,07,04,17,3.00
2012,11,07,04,18,3.10
2012,11,07,04,19,3.20
2012,11,07,04,20,3.20
2012,11,07,04,21,3.20
2012,11,07,04,22,3.20
2012,11,07,04,23,3.30
2012,11,07,04,24,3.30
2012,11,07,04,25,3.30
2012,11,07,04,26,3.30
2012,11,07,04,27,3.20
2012,11,07,04,28,3.20
2012,11,07,04,29,3.20
2012,11,07,04,30,3.20
2012,11,07,04,31,3.20
2012,11,07,04,32,3.10
2012,11,07,04,33,3.10
2012,11,07,04,34,3.10
2012,11,07,04,35,3.10
2012,11,07,04,36,3.00
2012,11,07,04,37,3.00
2012,11,07,04,38,3.00
2012,11,07,04,39,3.00
2012,11,07,04,40,3.00
2012,11,07,04,41,3.00
2012,11,07,04,42,3.00
2012,11,07,04,43,3.00
2012,11,07,04,44,3.00
2012,11,07,04,45,2.90
2012,11,07,04,46,2.80
2012,11,07,04,47,2.80
2012,11,07,04,48,2.70
2012,11,07,04,49,2.60
2012,11,07,04,50,2.50
2012,11,07,04,51,2.40
2012,11,07,04,52,2.40
2012,11,07,04,53,2.30
2012,11,07,04,54,2.30
2012,11,07,04,55,2.20
2012,11,07,04,56,2.20
2012,11,07,04,57,2.20
2012,11,07,04,58,2.20
2012,11,07,04,59,2.20
2012,11,07,05,00,2.20
2012,11,07,05,01,2.20
2012,11,07,05,02,2.20
2012,11,07,05,03,2.20
2012,11,07,05,04,2.20
2012,11,07,05,05,2.20
2012,11,07,05,06,2.20
2012,11,07,05,07,2.20
2012,11,07,05,08,2.20
2012,11,07,05,09,2.20
2012,11,07,05,10,2.20
2012,11,07,05,11,2.10
2012,11,07,05,12,2.10
2012,11,07,05,13,2.10
2012,11,07,05,14,2.00
2012,11,07,05,15,2.00
2012,11,07,05,16,1.90
2012,11,07,05,17,1.90
2012,11,07,05,18,1.80
2012,11,07,05,19,1.80
2012,11,07,05,20,1.80
2012,11,07,05,21,1.80
2012,11,07,05,22,1.70
2012,11,07,05,23,1.70
2012,11,07,05,24,1.70
2012,11,07,05,25,1.60
2012,11,07,05,26,1.60
2012,11,07,05,27,1.60
2012,11,07,05,28,1.60
2012,11,07,05,29,1.60
2012,11,07,05,30,1.60
2012,11,07,05,31,1.60
2012,11,07,05,32,1.60
2012,11,07,05,33,1.60
2012,11,07,05,34,1.60
2012,11,07,05,35,1.60
2012,11,07,05,36,1.70
2012,11,07,05,37,1.70
2012,11,07,05,38,1.70
2012,11,07,05,39,1.80
2012,11,07,05,40,1.80
2012,11,07,05,41,1.80
2012,11,07,05,42,1.80
2012,11,07,05,43,1.80
2012,11,07,05,44,1.80
2012,11,07,05,45,1.80
2012,11,07,05,46,1.80
2012,11,07,05,47,1.80
2012,11,07,05,48,1.80
2012,11,07,05,49,1.80
2012,11,07,05,50,1.80
2012,11,07,05,51,1.90
2012,11,07,05,52,1.90
2012,11,07,05,53,1.90
2012,11,07,05,54,1.90
2012,11,07,05,55,1.90
2012,11,07,05,56,1.90
2012,11,07,05,57,1.80
2012,11,07,05,58,1.80
2012,11,07,05,59,1.70
2012,11,07,06,00,1.70
2012,11,07,06,01,1.60
2012,11,07,06,02,1.50
2012,11,07,06,03,1.40
2012,11,07,06,04,1.30
2012,11,07,06,05,1.30
2012,11,07,06,06,1.30
2012,11,07,06,07,1.30
2012,11,07,06,08,1.30
2012,11,07,06,09,1.30
2012,11,07,06,10,1.30
2012,11,07,06,11,1.30
2012,11,07,06,12,1.30
2012,11,07,06,13,1.30
2012,11,07,06,14,1.30
2012,11,07,06,15,1.30
2012,11,07,06,16,1.30
2012,11,07,06,17,1.30
2012,11,07,06,18,1.30
2012,11,07,06,19,1.30
2012,11,07,06,20,1.30
2012,11,07,06,21,1.30
2012,11,07,06,22,1.30
2012,11,07,06,23,1.30
2012,11,07,06,24,1.30
2012,11,07,06,25,1.30
2012,11,07,06,26,1.30
2012,11,07,06,27,1.30
2012,11,07,06,28,1.30
2012,11,07,06,29,1.30
2012,11,07,06,30,1.20
2012,11,07,06,31,1.20
2012,11,07,06,32,1.10
2012,11,07,06,33,1.10
2012,11,07,06,34,1.00
2012,11,07,06,35,1.00
2012,11,07,06,36,1.00
2012,11,07,06,37,0.90
2012,11,07,06,38,0.90
2012,11,07,06,39,0.90
2012,11,07,06,40,0.90
2012,11,07,06,41,1.00
2012,11,07,06,42,1.00
2012,11,07,06,43,1.00
2012,11,07,06,44,1.00
2012,11,07,06,45,1.10
2012,11,07,06,46,1.10
2012,11,07,06,47,1.10
2012,11,07,06,48,1.10
2012,11,07,06,49,1.10
2012,11,07,06,50,1.10
2012,11,07,06,51,1.00
2012,11,07,06,52,1.00
2012,11,07,06,53,0.90
2012,11,07,06,54,0.90
2012,11,07,06,55,0.80
2012,11,07,06,56,0.80
2012,11,07,06,57,0.80
2012,11,07,06,58,0.90
2012,11,07,06,59,1.00
2012,11,07,07,00,1.20
2012,11,07,07,01,1.30
2012,11,07,07,02,1.30
2012,11,07,07,03,1.30
2012,11,07,07,04,1.30
2012,11,07,07,05,1.30
2012,11,07,07,06,1.30
2012,11,07,07,07,1.30
2012,11,07,07,08,1.30
2012,11,07,07,09,1.30
2012,11,07,07,10,1.30
2012,11,07,07,11,1.30
2012,11,07,07,12,1.30
2012,11,07,07,13,1.30
2012,11,07,07,14,1.30
2012,11,07,07,15,1.30
2012,11,07,07,16,1.30
2012,11,07,07,17,1.20
2012,11,07,07,18,1.20
2012,11,07,07,19,1.20
2012,11,07,07,20,1.20
2012,11,07,07,21,1.20
2012,11,07,07,22,1.20
2012,11,07,07,23,1.20
2012,11,07,07,24,1.20
2012,11,07,07,25,1.20
2012,11,07,07,26,1.10
2012,11,07,07,27,1.10
2012,11,07,07,28,1.10
2012,11,07,07,29,1.10
2012,11,07,07,30,1.10
2012,11,07,07,31,1.10
2012,11,07,07,32,1.10
2012,11,07,07,33,1.00
2012,11,07,07,34,1.00
2012,11,07,07,35,1.00
2012,11,07,07,36,0.90
2012,11,07,07,37,0.90
2012,11,07,07,38,0.90
2012,11,07,07,39,0.90
2012,11,07,07,40,0.90
2012,11,07,07,41,0.80
2012,11,07,07,42,0.80
2012,11,07,07,43,0.80
2012,11,07,07,44,0.80
2012,11,07,07,45,0.90
2012,11,07,07,46,0.90
2012,11,07,07,47,0.90
2012,11,07,07,48,1.00
2012,11,07,07,49,1.00
2012,11,07,07,50,1.10
2012,11,07,07,51,1.20
2012,11,07,07,52,1.20
2012,11,07,07,53,1.30
2012,11,07,07,54,1.30
2012,11,07,07,55,1.30
2012,11,07,07,56,1.30
2012,11,07,07,57,1.30
2012,11,07,07,58,1.30
2012,11,07,07,59,1.30
2012,11,07,08,00,1.30
2012,11,07,08,01,1.30
2012,11,07,08,02,1.30
2012,11,07,08,03,1.30
2012,11,07,08,04,1.30
2012,11,07,08,05,1.30
2012,11,07,08,06,1.30
2012,11,07,08,07,1.30
2012,11,07,08,08,1.30
2012,11,07,08,09,1.30
2012,11,07,08,10,1.40
2012,11,07,08,11,1.40
2012,11,07,08,12,1.50
2012,11,07,08,13,1.50
2012,11,07,08,14,1.60
2012,11,07,08,15,1.60
2012,11,07,08,16,1.60
2012,11,07,08,17,1.60
2012,11,07,08,18,1.60
2012,11,07,08,19,1.60
2012,11,07,08,20,1.70
2012,11,07,08,21,1.70
2012,11,07,08,22,1.70
2012,11,07,08,23,1.70
2012,11,07,08,24,1.80
2012,11,07,08,25,1.80
2012,11,07,08,26,1.90
2012,11,07,08,27,2.00
2012,11,07,08,28,2.00
2012,11,07,08,29,2.10
2012,11,07,08,30,2.20
2012,11,07,08,31,2.20
2012,11,07,08,32,2.30
2012,11,07,08,33,2.40
2012,11,07,08,34,2.50
2012,11,07,08,35,2.60
2012,11,07,08,36,2.60
2012,11,07,08,37,2.60
2012,11,07,08,38,2.60
2012,11,07,08,39,2.60
2012,11,07,08,40,2.60
2012,11,07,08,41,2.60
2012,11,07,08,42,2.60
2012,11,07,08,43,2.60
2012,11,07,08,44,2.60
2012,11,07,08,45,2.60
2012,11,07,08,46,2.60
2012,11,07,08,47,2.70
2012,11,07,08,48,2.70
2012,11,07,08,49,2.70
2012,11,07,08,50,2.70
2012,11,07,08,51,2.70
2012,11,07,08,52,2.70
2012,11,07,08,53,2.70
2012,11,07,08,54,2.80
2012,11,07,08,55,2.90
2012,11,07,08,56,2.90
2012,11,07,08,57,3.00
2012,11,07,08,58,3.10
2012,11,07,08,59,3.10
2012,11,07,09,00,3.20
2012,11,07,09,01,3.30
2012,11,07,09,02,3.30
2012,11,07,09,03,3.40
2012,11,07,09,04,3.50
2012,11,07,09,05,3.50
2012,11,07,09,06,3.60
2012,11,07,09,07,3.60
2012,11,07,09,08,3.60
2012,11,07,09,09,3.60
2012,11,07,09,10,3.70
2012,11,07,09,11,3.80
2012,11,07,09,12,3.90
2012,11,07,09,13,3.90
2012,11,07,09,14,4.00
2012,11,07,09,15,4.10
2012,11,07,09,16,4.20
2012,11,07,09,17,4.30
2012,11,07,09,18,4.40
2012,11,07,09,19,4.40
2012,11,07,09,20,4.50
2012,11,07,09,21,4.60
2012,11,07,09,22,4.70
2012,11,07,09,23,4.90
2012,11,07,09,24,5.00
2012,11,07,09,25,5.10
2012,11,07,09,26,5.10
2012,11,07,09,27,5.20
2012,11,07,09,28,5.20
2012,11,07,09,29,5.30
2012,11,07,09,30,5.40
2012,11,07,09,31,5.50
2012,11,07,09,32,5.60
2012,11,07,09,33,5.70
2012,11,07,09,34,5.80
2012,11,07,09,35,5.80
2012,11,07,09,36,5.90
2012,11,07,09,37,6.00
2012,11,07,09,38,6.10
2012,11,07,09,39,6.10
2012,11,07,09,40,6.20
2012,11,07,09,41,6.30
2012,11,07,09,42,6.40
2012,11,07,09,43,6.50
2012,11,07,09,44,6.60
2012,11,07,09,45,6.70
2012,11,07,09,46,6.80
2012,11,07,09,47,6.90
2012,11,07,09,48,7.00
2012,11,07,09,49,7.00
2012,11,07,09,50,7.10
2012,11,07,09,51,7.20
2012,11,07,09,52,7.20
2012,11,07,09,53,7.40
2012,11,07,09,54,7.50
2012,11,07,09,55,7.60
2012,11,07,09,56,7.70
2012,11,07,09,57,7.80
2012,11,07,09,58,7.90
2012,11,07,09,59,8.00
2012,11,07,10,00,8.00
2012,11,07,10,01,8.10
2012,11,07,10,02,8.20
2012,11,07,10,03,8.20
2012,11,07,10,04,8.20
2012,11,07,10,05,8.30
2012,11,07,10,06,8.30
2012,11,07,10,07,8.40
2012,11,07,10,08,8.40
2012,11,07,10,09,8.50
2012,11,07,10,10,8.50
2012,11,07,10,11,8.60
2012,11,07,10,12,8.60
2012,11,07,10,13,8.60
2012,11,07,10,14,8.70
2012,11,07,10,15,8.70
2012,11,07,10,16,8.80
2012,11,07,10,17,8.80
2012,11,07,10,18,8.80
2012,11,07,10,19,8.90
2012,11,07,10,20,8.90
2012,11,07,10,21,8.90
2012,11,07,10,22,9.00
2012,11,07,10,23,9.10
2012,11,07,10,24,9.20
2012,11,07,10,25,9.20
2012,11,07,10,26,9.30
2012,11,07,10,27,9.30
2012,11,07,10,28,9.30
2012,11,07,10,29,9.30
2012,11,07,10,30,9.30
2012,11,07,10,31,9.30
2012,11,07,10,32,9.30
2012,11,07,10,33,9.30
2012,11,07,10,34,9.30
2012,11,07,10,35,9.30
2012,11,07,10,36,9.30
2012,11,07,10,37,9.30
2012,11,07,10,38,9.30
2012,11,07,10,39,9.30
2012,11,07,10,40,9.30
2012,11,07,10,41,9.30
2012,11,07,10,42,9.40
2012,11,07,10,43,9.50
2012,11,07,10,44,9.60
2012,11,07,10,45,9.60
2012,11,07,10,46,9.70
2012,11,07,10,47,9.70
2012,11,07,10,48,9.80
2012,11,07,10,49,9.80
2012,11,07,10,50,9.90
2012,11,07,10,51,9.90
2012,11,07,10,52,9.90
2012,11,07,10,53,9.90
2012,11,07,10,54,9.90
2012,11,07,10,55,9.80
2012,11,07,10,56,9.80
2012,11,07,10,57,9.80
2012,11,07,10,58,9.80
2012,11,07,10,59,9.80
2012,11,07,11,00,9.80
2012,11,07,11,01,9.80
2012,11,07,11,02,9.80
2012,11,07,11,03,9.80
2012,11,07,11,04,9.90
2012,11,07,11,05,9.90
2012,11,07,11,06,10.00
2012,11,07,11,07,10.00
2012,11,07,11,08,10.10
2012,11,07,11,09,10.10
2012,11,07,11,10,10.10
2012,11,07,11,11,10.10
2012,11,07,11,12,10.10
2012,11,07,11,13,10.10
2012,11,07,11,14,10.10
2012,11,07,11,15,10.10
2012,11,07,11,16,10.10
2012,11,07,11,17,10.10
2012,11,07,11,18,10.00
2012,11,07,11,19,10.00
2012,11,07,11,20,10.00
2012,11,07,11,21,9.90
2012,11,07,11,22,9.90
2012,11,07,11,23,9.90
2012,11,07,11,24,10.00
2012,11,07,11,25,10.00
2012,11,07,11,26,10.10
2012,11,07,11,27,10.20
2012,11,07,11,28,10.20
2012,11,07,11,29,10.20
2012,11,07,11,30,10.20
2012,11,07,11,31,10.20
2012,11,07,11,32,10.20
2012,11,07,11,33,10.10
2012,11,07,11,34,10.10
2012,11,07,11,35,10.10
2012,11,07,11,36,10.10
2012,11,07,11,37,10.10
2012,11,07,11,38,10.10
2012,11,07,11,39,10.10
2012,11,07,11,40,10.00
2012,11,07,11,41,10.00
2012,11,07,11,42,10.00
2012,11,07,11,43,10.10
2012,11,07,11,44,10.10
2012,11,07,11,45,10.10
2012,11,07,11,46,10.20
2012,11,07,11,47,10.20
2012,11,07,11,48,10.20
2012,11,07,11,49,10.20
2012,11,07,11,50,10.20
2012,11,07,11,51,10.20
2012,11,07,11,52,10.20
2012,11,07,11,53,10.20
2012,11,07,11,54,10.20
2012,11,07,11,55,10.20
2012,11,07,11,56,10.20
2012,11,07,11,57,10.20
2012,11,07,11,58,10.30
2012,11,07,11,59,10.30
2012,11,07,12,00,10.30
2012,11,07,12,01,10.30
2012,11,07,12,02,10.40
2012,11,07,12,03,10.50
2012,11,07,12,04,10.60
2012,11,07,12,05,10.60
2012,11,07,12,06,10.60
2012,11,07,12,07,10.70
2012,11,07,12,08,10.60
2012,11,07,12,09,10.60
2012,11,07,12,10,10.60
2012,11,07,12,11,10.50
2012,11,07,12,12,10.40
2012,11,07,12,13,10.40
2012,11,07,12,14,10.40
2012,11,07,12,15,10.40
2012,11,07,12,16,10.30
2012,11,07,12,17,10.30
2012,11,07,12,18,10.40
2012,11,07,12,19,10.40
2012,11,07,12,20,10.50
2012,11,07,12,21,10.60
2012,11,07,12,22,10.60
2012,11,07,12,23,10.60
2012,11,07,12,24,10.60
2012,11,07,12,25,10.60
2012,11,07,12,26,10.50
2012,11,07,12,27,10.40
2012,11,07,12,28,10.40
2012,11,07,12,29,10.40
2012,11,07,12,30,10.30
2012,11,07,12,31,10.30
2012,11,07,12,32,10.30
2012,11,07,12,33,10.30
2012,11,07,12,34,10.30
2012,11,07,12,35,10.30
2012,11,07,12,36,10.30
2012,11,07,12,37,10.20
2012,11,07,12,38,10.20
2012,11,07,12,39,10.20
2012,11,07,12,40,10.20
2012,11,07,12,41,10.30
2012,11,07,12,42,10.30
2012,11,07,12,43,10.30
2012,11,07,12,44,10.40
2012,11,07,12,45,10.50
2012,11,07,12,46,10.60
2012,11,07,12,47,10.70
2012,11,07,12,48,10.70
2012,11,07,12,49,10.70
2012,11,07,12,50,10.70
2012,11,07,12,51,10.70
2012,11,07,12,52,10.80
2012,11,07,12,53,10.80
2012,11,07,12,54,10.80
2012,11,07,12,55,10.90
2012,11,07,12,56,11.00
2012,11,07,12,57,11.00
2012,11,07,12,58,11.00
2012,11,07,12,59,11.00
2012,11,07,13,00,11.10
2012,11,07,13,01,11.10
2012,11,07,13,02,11.10
2012,11,07,13,03,11.20
2012,11,07,13,04,11.20
2012,11,07,13,05,11.20
2012,11,07,13,06,11.20
2012,11,07,13,07,11.20
2012,11,07,13,08,11.20
2012,11,07,13,09,11.20
2012,11,07,13,10,11.10
2012,11,07,13,11,11.10
2012,11,07,13,12,11.00
2012,11,07,13,13,10.90
2012,11,07,13,14,10.80
2012,11,07,13,15,10.70
2012,11,07,13,16,10.70
2012,11,07,13,17,10.60
2012,11,07,13,18,10.60
2012,11,07,13,19,10.60
2012,11,07,13,20,10.60
2012,11,07,13,21,10.60
2012,11,07,13,22,10.60
2012,11,07,13,23,10.60
2012,11,07,13,24,10.60
2012,11,07,13,25,10.50
2012,11,07,13,26,10.60
2012,11,07,13,27,10.60
2012,11,07,13,28,10.60
2012,11,07,13,29,10.60
2012,11,07,13,30,10.60
2012,11,07,13,31,10.60
2012,11,07,13,32,10.70
2012,11,07,13,33,10.70
2012,11,07,13,34,10.70
2012,11,07,13,35,10.80
2012,11,07,13,36,10.80
2012,11,07,13,37,10.80
2012,11,07,13,38,10.80
2012,11,07,13,39,10.70
2012,11,07,13,40,10.70
2012,11,07,13,41,10.60
2012,11,07,13,42,10.60
2012,11,07,13,43,10.60
2012,11,07,13,44,10.60
2012,11,07,13,45,10.60
2012,11,07,13,46,10.60
2012,11,07,13,47,10.60
2012,11,07,13,48,10.60
2012,11,07,13,49,10.60
2012,11,07,13,50,10.50
2012,11,07,13,51,10.40
2012,11,07,13,52,10.30
2012,11,07,13,53,10.30
2012,11,07,13,54,10.20
2012,11,07,13,55,10.20
2012,11,07,13,56,10.10
2012,11,07,13,57,10.10
2012,11,07,13,58,10.10
2012,11,07,13,59,10.00
2012,11,07,14,00,10.00
2012,11,07,14,01,10.00
2012,11,07,14,02,9.90
2012,11,07,14,03,9.90
2012,11,07,14,04,9.90
2012,11,07,14,05,9.90
2012,11,07,14,06,10.00
2012,11,07,14,07,10.00
2012,11,07,14,08,10.00
2012,11,07,14,09,10.10
2012,11,07,14,10,10.10
2012,11,07,14,11,10.20
2012,11,07,14,12,10.20
2012,11,07,14,13,10.30
2012,11,07,14,14,10.50
2012,11,07,14,15,10.60
2012,11,07,14,16,10.60
2012,11,07,14,17,10.60
2012,11,07,14,18,10.70
2012,11,07,14,19,10.70
2012,11,07,14,20,10.70
2012,11,07,14,21,10.70
2012,11,07,14,22,10.70
2012,11,07,14,23,10.70
2012,11,07,14,24,10.70
2012,11,07,14,25,10.70
2012,11,07,14,26,10.70
2012,11,07,14,27,10.60
2012,11,07,14,28,10.60
2012,11,07,14,29,10.60
2012,11,07,14,30,10.60
2012,11,07,14,31,10.60
2012,11,07,14,32,10.60
2012,11,07,14,33,10.60
2012,11,07,14,34,10.60
2012,11,07,14,35,10.50
2012,11,07,14,36,10.50
2012,11,07,14,37,10.50
2012,11,07,14,38,10.40
2012,11,07,14,39,10.40
2012,11,07,14,40,10.40
2012,11,07,14,41,10.40
2012,11,07,14,42,10.40
2012,11,07,14,43,10.40
2012,11,07,14,44,10.40
2012,11,07,14,45,10.30
2012,11,07,14,46,10.30
2012,11,07,14,47,10.30
2012,11,07,14,48,10.20
2012,11,07,14,49,10.20
2012,11,07,14,50,10.10
2012,11,07,14,51,10.10
2012,11,07,14,52,10.10
2012,11,07,14,53,10.10
2012,11,07,14,54,10.00
2012,11,07,14,55,10.00
2012,11,07,14,56,10.00
2012,11,07,14,57,10.00
2012,11,07,14,58,10.00
2012,11,07,14,59,10.00
2012,11,07,15,00,10.00
2012,11,07,15,01,10.00
2012,11,07,15,02,10.00
2012,11,07,15,03,10.00
2012,11,07,15,04,10.00
2012,11,07,15,05,10.10
2012,11,07,15,06,10.10
2012,11,07,15,07,10.00
2012,11,07,15,08,10.00
2012,11,07,15,09,10.00
2012,11,07,15,10,10.00
2012,11,07,15,11,10.00
2012,11,07,15,12,10.00
2012,11,07,15,13,9.90
2012,11,07,15,14,9.90
2012,11,07,15,15,9.90
2012,11,07,15,16,9.90
2012,11,07,15,17,9.90
2012,11,07,15,18,9.90
2012,11,07,15,19,9.80
2012,11,07,15,20,9.80
2012,11,07,15,21,9.80
2012,11,07,15,22,9.80
2012,11,07,15,23,9.80
2012,11,07,15,24,9.80
2012,11,07,15,25,9.80
2012,11,07,15,26,9.80
2012,11,07,15,27,9.80
2012,11,07,15,28,9.80
2012,11,07,15,29,9.70
2012,11,07,15,30,9.70
2012,11,07,15,31,9.70
2012,11,07,15,32,9.70
2012,11,07,15,33,9.60
2012,11,07,15,34,9.60
2012,11,07,15,35,9.60
2012,11,07,15,36,9.60
2012,11,07,15,37,9.50
2012,11,07,15,38,9.50
2012,11,07,15,39,9.40
2012,11,07,15,40,9.40
2012,11,07,15,41,9.40
2012,11,07,15,42,9.30
2012,11,07,15,43,9.30
2012,11,07,15,44,9.30
2012,11,07,15,45,9.30
2012,11,07,15,46,9.30
2012,11,07,15,47,9.20
2012,11,07,15,48,9.20
2012,11,07,15,49,9.20
2012,11,07,15,50,9.20
2012,11,07,15,51,9.20
2012,11,07,15,52,9.20
2012,11,07,15,53,9.20
2012,11,07,15,54,9.10
2012,11,07,15,55,9.10
2012,11,07,15,56,9.10
2012,11,07,15,57,9.10
2012,11,07,15,58,9.00
2012,11,07,15,59,9.00
2012,11,07,16,00,9.00
2012,11,07,16,01,8.90
2012,11,07,16,02,8.90
2012,11,07,16,03,8.90
2012,11,07,16,04,8.80
2012,11,07,16,05,8.80
2012,11,07,16,06,8.70
2012,11,07,16,07,8.70
2012,11,07,16,08,8.70
2012,11,07,16,09,8.60
2012,11,07,16,10,8.60
2012,11,07,16,11,8.50
2012,11,07,16,12,8.50
2012,11,07,16,13,8.40
2012,11,07,16,14,8.40
2012,11,07,16,15,8.30
2012,11,07,16,16,8.30
2012,11,07,16,17,8.20
2012,11,07,16,18,8.20
2012,11,07,16,19,8.20
2012,11,07,16,20,8.10
2012,11,07,16,21,8.10
2012,11,07,16,22,8.00
2012,11,07,16,23,8.00
2012,11,07,16,24,8.00
2012,11,07,16,25,8.00
2012,11,07,16,26,8.00
2012,11,07,16,27,8.00
2012,11,07,16,28,7.90
2012,11,07,16,29,7.90
2012,11,07,16,30,7.90
2012,11,07,16,31,7.90
2012,11,07,16,32,7.90
2012,11,07,16,33,7.90
2012,11,07,16,34,7.90
2012,11,07,16,35,7.80
2012,11,07,16,36,7.80
2012,11,07,16,37,7.80
2012,11,07,16,38,7.80
2012,11,07,16,39,7.70
2012,11,07,16,40,7.70
2012,11,07,16,41,7.60
2012,11,07,16,42,7.50
2012,11,07,16,43,7.40
2012,11,07,16,44,7.30
2012,11,07,16,45,7.30
2012,11,07,16,46,7.20
2012,11,07,16,47,7.20
2012,11,07,16,48,7.10
2012,11,07,16,49,7.00
2012,11,07,16,50,7.00
2012,11,07,16,51,6.90
2012,11,07,16,52,6.80
2012,11,07,16,53,6.80
2012,11,07,16,54,6.80
2012,11,07,16,55,6.70
2012,11,07,16,56,6.70
2012,11,07,16,57,6.60
2012,11,07,16,58,6.60
2012,11,07,16,59,6.60
2012,11,07,17,00,6.50
2012,11,07,17,01,6.50
2012,11,07,17,02,6.40
2012,11,07,17,03,6.40
2012,11,07,17,04,6.30
2012,11,07,17,05,6.30
2012,11,07,17,06,6.30
2012,11,07,17,07,6.20
2012,11,07,17,08,6.20
2012,11,07,17,09,6.20
2012,11,07,17,10,6.10
2012,11,07,17,11,6.10
2012,11,07,17,12,6.00
2012,11,07,17,13,6.00
2012,11,07,17,14,6.00
2012,11,07,17,15,5.90
2012,11,07,17,16,5.90
2012,11,07,17,17,5.80
2012,11,07,17,18,5.80
2012,11,07,17,19,5.70
2012,11,07,17,20,5.70
2012,11,07,17,21,5.60
2012,11,07,17,22,5.60
2012,11,07,17,23,5.60
2012,11,07,17,24,5.50
2012,11,07,17,25,5.50
2012,11,07,17,26,5.50
2012,11,07,17,27,5.40
2012,11,07,17,28,5.40
2012,11,07,17,29,5.40
2012,11,07,17,30,5.30
2012,11,07,17,31,5.30
2012,11,07,17,32,5.30
2012,11,07,17,33,5.30
2012,11,07,17,34,5.30
2012,11,07,17,35,5.30
2012,11,07,17,36,5.30
2012,11,07,17,37,5.30
2012,11,07,17,38,5.30
2012,11,07,17,39,5.30
2012,11,07,17,40,5.20
2012,11,07,17,41,5.20
2012,11,07,17,42,5.20
2012,11,07,17,43,5.20
2012,11,07,17,44,5.10
2012,11,07,17,45,5.10
2012,11,07,17,46,5.10
2012,11,07,17,47,5.10
2012,11,07,17,48,5.10
2012,11,07,17,49,5.00
2012,11,07,17,50,5.00
2012,11,07,17,51,5.00
2012,11,07,17,52,5.00
2012,11,07,17,53,4.90
2012,11,07,17,54,4.90
2012,11,07,17,55,4.90